DELTA 1 DEB, 13532

Orbit data source: Space-Track

DELTA 1 DEB, 13532 is space debris in LEO originally from a launch on Thu, 29 Jul 1976 UTC launched from the Air Force Western Test Range (AFWTR). Debris objects in space refer to the collection of defunct objects orbiting the Earth. Examples of debris include non-operational satellites, rocket bodies, and fragments generated from explosions, collisions, or faulty payload assembly.

Loading next visibility...
Identifier
13532, 1976-077EE
Orbit
LEO
Country
Flag of USUS
Related business
Manufacturer
Unknown
Mission
Spacecraft
Bus & Motor
Unknown
Mass
Unknown
Launch date (UTC)
1976-07-29 (50 years ago)
Launch vehicle
Unknown
Launch site
Air Force Western Test Range (AFWTR)
Object type
Payload
Rocket body
Debris
Shape & HBR
Unknown shape, 0.1 m
Radar Cross Section
Small (<0.1 m²)

Expand to show TLE details & history
Last TLE update: 1 day ago

TLE from 1 day ago
0 DELTA 1 DEB
1 13532U 76077EE  26033.35177340 -.00000068  00000-0 -31792-3 0  9996
2 13532 102.2530 338.9730 0285171 226.9823 289.1489 11.94068754945552
Epoch: 2026-02-02T08:26Z
TLE epoch observation values (Epoch: 2026-02-02T08:26:33.221Z)
Latitude
26.36198°
Longitude
-94.06505°
Altitude
1,640.66 km
Speed
7.084 km/s
True Right ascension
11h 00m 29s
True Declination
26° 14' 26"
Sunlit
Object was in full shadow at epoch
Visualization orbit readout
Latitude
Unknown
Longitude
Unknown
Altitude
Unknown
Speed
Unknown
Apparent Right ascension
Unknown
Apparent Declination
Unknown
Sunlit
N/A
Visualization observer readout
Local Sidereal Time
11:42:55
Azimuth
Unknown
Elevation
Unknown
Doppler factor
Unknown
Orbital elements
Apogee altitude
1,935.685 km
Perigee altitude
1,474.66 km
Semi-major axis
8,083.31 km
Eccentricity
0.02852
Inclination
102.253°
RAAN
338.973°
Arg. of periapsis
226.9823°
True anomaly
286.02693°
Mean anomaly
289.1489°
Eccentric anomaly
287.5914°
Mean motion
2.98648 °/min
Orbital period
120.54 mins
BSTAR
-0.00031792
Loading maneuver chart data...
Computing Atmospheric mass density...
Loading historical data...
Loading historical data...
Loading historical data...
Loading historical data...
Loading historical data...
Loading historical data...
Loading historical data...

Documentation

Showing up to 5 results
|